Portada
METAR-TAF:

METAR-TAF

Aeroports :

Pekanbaru, Indonèsia

latitud: 00-28N, longitud: 101-27E, altitud: 31 m

Observació

L'informe es va fer fa 3 hores i 17 minuts, a les 13:30 UTC
Vent 6 kt del Sud
Temperatura 27°C
Humitat 89%
Pressió 1010 hPa
Visibilitat: 7000 m
Núvols disperses a una alçada de 1700 ft, Cumulonimbus.

METAR: WIBB 171330Z 19006KT 7000 SCT017CB 27/25 Q1010

Hora: 23:47 (16:47 UTC)


TAF: manca

Observacions i pronòstics meteorològics de més de 4000 aeroports (METAR i TAF).

Les estacions disponibles són els punts grocs i vermells al mapa.

Posi el ratolí al punt desitjat per veure el nom de l'estació.

Feu clic per veure les observacions i els pronòstics meteorològics.

Per canviar el mapa: feu clic els botons verds amb una creu de color negre per apropar; al botó verd amb un guió per allunyar la imatge; o en les fletxes verdes per a mapes adjacents.


METAR-TAF: